This is the latest recevied weather packets stored in our database for station/object KF0ZH. If no packets are shown the sender has not sent any weather packets the latest 10 day(s).
| Time | Temp. | Humidity | Pressure | Rain* | Wind** | Luminosity | Snow |
|---|---|---|---|---|---|---|---|
| 1778015217 | 10° C | 52% | 1009.6 hPa | 0 mm | 1.79 m/s, 282° | - | - |
| 1778014918 | 10° C | 52% | 1009.6 hPa | 0 mm | 2.68 m/s, 288° | - | - |
| 1778014326 | 10° C | 51% | 1009.6 hPa | 0 mm | 3.58 m/s, 298° | - | - |
| 1778014017 | 10° C | 52% | 1009.5 hPa | 0 mm | 0 m/s | - | - |
| 1778013718 | 10° C | 52% | 1009.5 hPa | 0 mm | 0 m/s | - | - |
| 1778013117 | 10° C | 51% | 1009.5 hPa | 0 mm | 0.89 m/s, 188° | - | - |
| 1778012819 | 10.56° C | 50% | 1009.6 hPa | 0 mm | 3.58 m/s, 309° | - | - |
| 1778012518 | 10° C | 51% | 1009.6 hPa | 0 mm | 2.68 m/s, 309° | - | - |
| 1778012217 | 10° C | 53% | 1009.6 hPa | 0 mm | 0 m/s | - | - |
| 1778011917 | 9.44° C | 53% | 1009.7 hPa | 0 mm | 2.24 m/s, 270° | - | - |
| 1778011617 | 10° C | 52% | 1009.7 hPa | 0 mm | 4.02 m/s, 312° | - | - |
| 1778011318 | 9.44° C | 52% | 1009.7 hPa | 0 mm | 1.34 m/s, 298° | - | - |
| 1778011019 | 9.44° C | 54% | 1009.7 hPa | 0 mm | 0 m/s | - | - |
| 1778010719 | 9.44° C | 53% | 1009.7 hPa | 0 mm | 3.58 m/s, 288° | - | - |
| 1778010417 | 9.44° C | 53% | 1009.7 hPa | 0 mm | 1.34 m/s, 315° | - | - |
| 1778010116 | 9.44° C | 53% | 1009.8 hPa | 0 mm | 2.24 m/s, 260° | - | - |
| 1778009816 | 9.44° C | 54% | 1009.7 hPa | 0 mm | 0 m/s | - | - |
| 1778009517 | 9.44° C | 53% | 1009.7 hPa | 0 mm | 2.68 m/s, 22° | - | - |
| 1778009219 | 9.44° C | 53% | 1009.7 hPa | 0 mm | 5.36 m/s, 293° | - | - |
| 1778008920 | 9.44° C | 53% | 1009.7 hPa | 0 mm | 1.34 m/s, 284° | - | - |
| 1778008616 | 9.44° C | 53% | 1009.7 hPa | 0 mm | 3.58 m/s, 312° | - | - |
| 1778008324 | 10° C | 53% | 1009.7 hPa | 0 mm | 2.24 m/s, 326° | - | - |
| 1778008018 | 10° C | 53% | 1009.7 hPa | 0 mm | 1.34 m/s, 286° | - | - |
| 1778007718 | 9.44° C | 54% | 1009.8 hPa | 0 mm | 0 m/s | - | - |
| 1778007416 | 9.44° C | 53% | 1009.8 hPa | 0 mm | 4.02 m/s, 223° | - | - |
* Rain latest hour (hover to see other rain measurements)
** Current wind speed in m/s (hover to see current wind gust speed)